Flag for India Weather past 2 weeks in Ahmedabad, Gujarat, India

Now
86 °F

Partly cloudy.


Feels Like: 95 °F
Forecast: 80 / 89 °F
Wind: 6 mph from Southwest

Location: Ahmadabad Airport

Current Time: Aug 1, 2015 at 10:08:44 PM

Latest Report: Aug 1, 2015 at 9:40 PM


Visibility: 2 mi

Pressure: 29.71 "Hg

Humidity: 70%

Dew point: 75 °F

Location of AhmedabadLocation

Historic Weather in Ahmedabad — Graph

°F

Ahmedabad temperature yesterday

Maximum temperature yesterday: 91 °F (at 4:40 PM)
Minimum temperature yesterday: 79 °F (at 6:40 AM)
Average temperature yesterday: 84 °F

Past Weeks' High & Low Weather Summary

 TemperatureHumidityPressure
High100 °F (Jul 18, 4:40 PM)100% (Jul 26, 3:10 PM)29.74 "Hg (Jul 26, 3:10 PM)
Low73 °F (Jul 27, 4:40 PM)42% (Jul 18, 4:40 PM)29.45 "Hg (Jul 18, 4:10 PM)
Average84 °F77%29.57 "Hg
* Reported Jul 17 8:40 PM — Aug 1 8:40 PM, Ahmedabad, Weather by CustomWeather, © 2015

Note: Actual official high and low records may vary slightly from our data, if they occured in-between our weather recording intervals... More about our weather records

Advertising

Ahmedabad weather history for previous 24 hours

 ConditionsComfort  
Time TempWeatherWind HumidityBarometerVisibility
8:40 PM
Sat, Aug 1
86 °FPartly cloudy.7 mph70%29.68 "Hg2 mi
8:10 PM88 °FPartly cloudy.7 mph66%29.68 "Hg2 mi
7:40 PM90 °FBroken clouds.9 mph63%29.65 "Hg2 mi
7:10 PM88 °FPartly sunny.9 mph66%29.68 "Hg3 mi
5:40 PM90 °FBroken clouds.12 mph63%29.65 "Hg4 mi
5:10 PM90 °FBroken clouds.12 mph63%29.65 "Hg4 mi
4:40 PM90 °FBroken clouds.9 mph63%29.68 "Hg4 mi
4:10 PM90 °FBroken clouds.12 mph63%29.68 "Hg4 mi
3:40 PM90 °FBroken clouds.12 mph67%29.68 "Hg4 mi
3:10 PM90 °FBroken clouds.10 mph67%29.71 "Hg4 mi
2:40 PM90 °FBroken clouds.10 mph67%29.71 "Hg4 mi
2:10 PM90 °FBroken clouds.10 mph59%29.71 "Hg4 mi
1:40 PM90 °FBroken clouds.10 mph59%29.71 "Hg4 mi
12:40 PM88 °FScattered clouds.12 mph66%29.74 "Hg3 mi
12:10 PM86 °FBroken clouds.9 mph70%29.74 "Hg3 mi
11:40 AM84 °FBroken clouds.10 mph74%29.74 "Hg3 mi
10:40 AM84 °FPartly sunny.8 mph79%29.74 "Hg3 mi
9:10 AM82 °FPartly sunny.15 mph79%29.74 "Hg2 mi
8:40 AM82 °FPartly sunny.15 mph79%29.71 "Hg2 mi
8:10 AM82 °FPartly sunny.13 mph79%29.71 "Hg2 mi
7:40 AM81 °FPartly sunny.10 mph84%29.71 "Hg2 mi
7:10 AM81 °FPartly sunny.9 mph84%29.68 "Hg2 mi
6:40 AM81 °FPartly sunny.9 mph84%29.68 "Hg2 mi
5:40 AM81 °FPassing clouds.8 mph84%29.68 "Hg2 mi
5:10 AM81 °FPassing clouds.9 mph84%29.68 "Hg2 mi
4:40 AM81 °FPassing clouds.9 mph84%29.68 "Hg2 mi
4:10 AM81 °FPassing clouds.10 mph84%29.68 "Hg2 mi
3:40 AM81 °FPassing clouds.9 mph84%29.68 "Hg2 mi
3:10 AM81 °FPassing clouds.8 mph84%29.68 "Hg2 mi
2:40 AM81 °FPassing clouds.10 mph84%29.68 "Hg2 mi
1:40 AM81 °FPassing clouds.10 mph79%29.68 "Hg2 mi
1:10 AM81 °FPassing clouds.10 mph79%29.68 "Hg2 mi
12:40 AM82 °FPassing clouds.9 mph74%29.68 "Hg2 mi
12:10 AM82 °FPassing clouds.8 mph79%29.71 "Hg2 mi
11:40 PM
Fri, Jul 31
84 °FPassing clouds.9 mph74%29.71 "Hg2 mi
11:10 PM84 °FPassing clouds.9 mph70%29.71 "Hg2 mi
10:10 PM84 °FPassing clouds.10 mph74%29.68 "Hg2 mi
Weather by CustomWeather, © 2015

See weather overviewHow to use our weather pages